Weather History for PABA - October, 2012

Change the Weather History Date:

Tuesday, October 16, 2012

  Actual Average Record
Temperature  
Mean Temperature 25 °F -  
Max Temperature 26 °F 21 °F 33 °F (1998)
Min Temperature 24 °F 12 °F 1 °F (1997)
Degree Days  
Heating Degree Days 40    
Moisture  
Dew Point 24 °F    
Average Humidity 97    
Maximum Humidity 100    
Minimum Humidity 92    
Precipitation  
Precipitation 0.00 in - - ()
Sea Level Pressure  
Sea Level Pressure 29.59 in    
Wind  
Wind Speed 15 mph (West)    
Max Wind Speed 21 mph    
Max Gust Speed -    
Visibility 3 miles    
Events Snow    
Averages and records for this station are not official NWS values.
T = Trace of Precipitation, MM = Missing Value Source: NWS Daily Summary

Daily Weather History Graph

Daily Weather History Graph

Search for Another Location

Airport or City:

Trip Planner

Search our weather history database for the weather conditions in past years. The results will help you decide how hot, cold, wet, or windy it might be!

Date:

Astronomy

Oct. 16, 2012 Rise Set
Actual Time 8:55 AM AKDT 5:42 PM AKDT
Civil Twilight 7:51 AM AKDT 6:46 PM AKDT
Nautical Twilight 6:39 AM AKDT 7:57 PM AKDT
Astronomical Twilight 5:26 AM AKDT 9:10 PM AKDT
Moon 12:17 PM AKDT (10/16) 4:38 PM AKDT (10/16)
Length of Visible Light 10h 55m
Length of Day
8h 46m
Waxing Crescent, 3% of the Moon is Illuminated
Oct 16
Waxing Crescent
Oct 21
First Quarter
Oct 29
Full
Nov 6
Last Quarter
Nov 13
New

Hourly Weather History & Observations

Time (AKDT) Temp. Windchill Dew Point Humidity Pressure Visibility Wind Dir Wind Speed Gust Speed Precip Events Conditions
12:01 AM 24.1 °F 11.5 °F 23.0 °F 96% 29.58 in 8.0 mi West 15.0 mph - 0.00 in Snow Light Snow
1:01 AM 25.0 °F 13.6 °F 23.0 °F 92% 29.58 in 9.0 mi WNW 12.7 mph - 0.00 in   Partly Cloudy
1:16 AM 24.8 °F 13.4 °F 23.0 °F 93% 29.58 in 6.0 mi WNW 12.7 mph - 0.00 in   Mostly Cloudy
1:45 AM 24.8 °F 12.9 °F 24.8 °F 100% 29.58 in 3.0 mi WNW 13.8 mph - 0.00 in Snow Light Snow
2:01 AM 25.0 °F 14.2 °F 24.1 °F 96% 29.58 in 3.0 mi WNW 11.5 mph - 0.00 in Snow Light Snow
2:20 AM 26.6 °F 16.8 °F 24.8 °F 93% 29.58 in 2.5 mi West 10.4 mph - 0.00 in Snow Light Snow
2:24 AM 26.6 °F 16.2 °F 24.8 °F 93% 29.58 in 2.5 mi West 11.5 mph - 0.00 in Snow Light Snow
2:26 AM 24.8 °F 14.0 °F 24.8 °F 100% 29.58 in 3.0 mi West 11.5 mph - 0.00 in Snow Light Snow
2:50 AM 24.8 °F 12.9 °F 24.8 °F 100% 29.58 in 2.5 mi West 13.8 mph - 0.00 in Snow Light Snow
3:01 AM 25.0 °F 13.1 °F 24.1 °F 96% 29.58 in 2.0 mi West 13.8 mph - 0.00 in Snow Light Snow
3:09 AM 24.8 °F 12.9 °F 24.8 °F 100% 29.58 in 1.8 mi West 13.8 mph - 0.00 in Snow Light Snow
3:30 AM 24.8 °F 11.9 °F 24.8 °F 100% 29.58 in 2.0 mi West 16.1 mph - 0.00 in Snow Light Snow
4:01 AM 26.1 °F 12.7 °F 25.0 °F 96% 29.59 in 2.0 mi West 18.4 mph - 0.00 in Snow Light Snow
4:28 AM 24.8 °F 11.9 °F 24.8 °F 100% 29.58 in 3.0 mi West 16.1 mph - 0.00 in Snow Blowing Snow
4:41 AM 24.8 °F 11.5 °F 24.8 °F 100% 29.59 in 2.5 mi West 17.3 mph - 0.00 in Snow Blowing Snow
4:56 AM 24.8 °F 10.3 °F 24.8 °F 100% 29.59 in 3.0 mi West 20.7 mph - 0.00 in Snow Blowing Snow
5:01 AM 24.8 °F 11.1 °F 24.8 °F 100% 29.59 in 2.5 mi West 18.4 mph - 0.00 in Snow Blowing Snow
5:16 AM 24.8 °F 11.1 °F 24.8 °F 100% 29.59 in 2.5 mi West 18.4 mph - 0.00 in Snow Blowing Snow
6:01 AM 24.8 °F 10.3 °F 24.8 °F 100% 29.59 in 3.0 mi West 20.7 mph - 0.00 in Snow Blowing Snow
7:01 AM 24.8 °F 10.3 °F 23.0 °F 93% 29.60 in 2.5 mi West 20.7 mph - 0.00 in Snow Blowing Snow
7:30 AM 24.8 °F 10.7 °F 23.0 °F 93% 29.60 in 3.0 mi West 19.6 mph - 0.00 in Snow Blowing Snow
7:48 AM 24.8 °F 11.5 °F 23.0 °F 93% 29.60 in 2.5 mi West 17.3 mph - 0.00 in   Clear